Вернуться в каталог

DMSP 5D-3 F17 DEB

АктивенSSO
NORAD 29524·DEBRIS·🇺🇸 United States

Запущен Nov 4, 2006 с Vandenberg Space Force Base

Loading…

Ближайшие Пролёты (ближайшие 24 часа)

TLE

СвежийSource: Space-Track

Эпоха: Sep 14, 2026, 20:02 UTC

1 29524U 06050C   26257.83507469  .00001306  00000-0  51528-3 0  9991
2 29524  98.5501 276.5680 0004492 230.0939 304.9333 14.30754149 28745

Отслеживайте DMSP 5D-3 F17 DEB в реальном времени с AllMySat

Download on the App Store